{"data":{"norad_id":39265,"intl_designator":"2013-055A","name":"CASSIOPE","alt_names":[],"object_type":"PAYLOAD","status":"ACTIVE","operator":null,"country":"CA","launch_date":"2013-09-29","launch_site_code":"AFWTR","launch_vehicle":null,"mission":null,"orbit_class":"UNKNOWN","rcs_meters":2.057,"size_class":null,"mass_kg":null,"dimensions":null,"purposes":["science"],"wikipedia_slug":null,"has_3d_model":false,"image_url":null,"decayed_at":null,"tle_current":{"epoch":"2026-05-25T02:50:59.313120Z","epoch_age_seconds":78844,"freshness":"FRESH","line1":"1 39265U 13055A   26145.11874205  .00033114 -63794-6  37278-3 0  9993","line2":"2 39265  80.9139  94.6867 0299485 139.7466 222.6371 15.23196256664155","mean_motion":15.23196256,"eccentricity":0.0299485,"inclination_deg":80.9139,"raan_deg":94.6867,"arg_perigee_deg":139.7466,"mean_anomaly_deg":222.6371,"bstar":0.00037278,"rev_number":66415,"period_min":94.538047498982,"perigee_km":290.33078068768,"apogee_km":702.08336769965,"semimajor_km":6874.3440741937,"source":"CELESTRAK","updated_at":"2026-05-25T13:38:24.641924Z"}}}